User: anonymous   Login
Location: Pleiades Observatory
(40.1297°N, 91.5238°W)
Time: 17:59:16
(UTC-06:00)
Language:

Cosmos 1842 Rocket - Orbit

View from above orbital plane
View from above orbital plane
View from above satellite
View from above satellite

Ground track
Ground track

The orbit data is extracted from the following two-line orbital elements,

1 17912U 87038B   14327.79240443  .00000382  00000-0  44368-4 0  5219
2 17912 082.5032 208.7358 0021854 075.7566 284.6073 14.82513501488977
Epoch (UTC): 23 November 2014 19:01:03
Eccentricity: 0.0021854
inclination: 82.5032°
perigee height: 606 km
apogee height: 637 km
right ascension of ascending node: 208.7358°
argument of perigee: 75.7566°
revolutions per day: 14.82513501
mean anomaly at epoch: 284.6073°
orbit number at epoch: 48897

The dashed part of the orbit path shows where the satellite is in the earth's shadow,  

DLR